Weather History for Dallas Addison, TX

Change the Weather History Date:

Wednesday, March 20, 2013

  Actual Average Record
Temperature  
Mean Temperature 57 °F -  
Max Temperature 66 °F 65 °F 87 °F (2004)
Min Temperature 48 °F 48 °F 37 °F (2001)
Degree Days  
Heating Degree Days 8    
Growing Degree Days 7 (Base 50)    
Moisture  
Dew Point 29 °F    
Average Humidity 37    
Maximum Humidity 54    
Minimum Humidity 21    
Precipitation  
Precipitation 0.00 in - - ()
Sea Level Pressure  
Sea Level Pressure 30.17 in    
Wind  
Wind Speed 7 mph (NE)    
Max Wind Speed 13 mph    
Max Gust Speed 21 mph    
Visibility 12 miles    
Events      
Averages and records for this station are not official NWS values.
T = Trace of Precipitation, MM = Missing Value Source: NWS Daily Summary

Daily Weather History Graph

Daily Weather History Graph

Search for Another Location

Airport:

Trip Planner

Search our weather history database for the weather conditions in past years. The results will help you decide how hot, cold, wet, or windy it might be!

Date:

Astronomy

Mar. 20, 2013 Rise Set
Actual Time 7:30 AM CDT 7:39 PM CDT
Civil Twilight 7:06 AM CDT 8:03 PM CDT
Nautical Twilight 6:37 AM CDT 8:32 PM CDT
Astronomical Twilight 6:08 AM CDT 9:01 PM CDT
Moon 1:31 PM CDT (3/20) 2:54 AM CDT (3/20)
Length of Visible Light 12h 57m
Length of Day
12h 08m
First Quarter, 59% of the Moon is Illuminated
Mar 20
First Quarter
Mar 27
Full
Apr 2
Last Quarter
Apr 10
New
Apr 18
First Quarter

Hourly Weather History & Observations

Time (CDT) Temp. Dew Point Humidity Pressure Visibility Wind Dir Wind Speed Gust Speed Precip Events Conditions
12:15 AM 57.2 °F 30.2 °F 36% 30.13 in 10.0 mi NNE 8.1 mph - N/A   Clear
12:35 AM 55.4 °F 30.2 °F 38% 30.13 in 10.0 mi ENE 9.2 mph - N/A   Clear
12:55 AM 55.4 °F 30.2 °F 38% 30.14 in 10.0 mi NE 8.1 mph - N/A   Clear
1:15 AM 55.4 °F 30.2 °F 38% 30.14 in 10.0 mi NE 6.9 mph - N/A   Clear
1:35 AM 55.4 °F 30.2 °F 38% 30.15 in 10.0 mi NE 5.8 mph - N/A   Clear
1:55 AM 55.4 °F 30.2 °F 38% 30.16 in 10.0 mi NE 8.1 mph - N/A   Clear
2:15 AM 55.4 °F 30.2 °F 38% 30.17 in 10.0 mi NE 8.1 mph - N/A   Clear
2:35 AM 53.6 °F 32.0 °F 44% 30.19 in 10.0 mi NNE 5.8 mph - N/A   Clear
2:55 AM 53.6 °F 32.0 °F 44% 30.19 in 10.0 mi NNE 4.6 mph - N/A   Clear
3:15 AM 51.8 °F 32.0 °F 47% 30.19 in 10.0 mi NNE 5.8 mph - N/A   Clear
3:35 AM 51.8 °F 32.0 °F 47% 30.18 in 10.0 mi NE 5.8 mph - N/A   Clear
3:55 AM 51.8 °F 32.0 °F 47% 30.18 in 10.0 mi NE 6.9 mph - N/A   Clear
4:15 AM 51.8 °F 32.0 °F 47% 30.18 in 10.0 mi NE 5.8 mph - N/A   Clear
4:35 AM 51.8 °F 32.0 °F 47% 30.18 in 10.0 mi ENE 9.2 mph - N/A   Clear
4:55 AM 51.8 °F 32.0 °F 47% 30.18 in 10.0 mi ENE 9.2 mph - N/A   Clear
5:15 AM 51.8 °F 32.0 °F 47% 30.19 in 10.0 mi East 6.9 mph - N/A   Scattered Clouds
5:35 AM 51.8 °F 32.0 °F 47% 30.20 in 10.0 mi ENE 5.8 mph - N/A   Scattered Clouds
5:51 AM 51.8 °F 32.0 °F 47% 30.21 in 20.0 mi NE 9.2 mph - N/A   Scattered Clouds
5:55 AM 51.8 °F 32.0 °F 47% 30.21 in 10.0 mi ENE 10.4 mph - N/A   Scattered Clouds
6:59 AM 50.0 °F 32.0 °F 50% 30.25 in 15.0 mi NE 8.1 mph - N/A   Partly Cloudy
7:47 AM 48.2 °F 32.0 °F 54% 30.27 in 13.0 mi NE 6.9 mph - N/A   Partly Cloudy
8:48 AM 51.8 °F 32.0 °F 47% 30.29 in 13.0 mi NE 9.2 mph - N/A   Clear
9:50 AM 55.4 °F 30.2 °F 38% 30.31 in 13.0 mi NE 5.8 mph - N/A   Clear
10:52 AM 59.0 °F 30.2 °F 34% 30.22 in 13.0 mi North 4.6 mph - N/A   Clear
11:47 AM 60.8 °F 30.2 °F 31% 30.31 in 13.0 mi NE 5.8 mph - N/A   Clear
12:47 PM 62.6 °F 23.0 °F 22% 30.29 in 13.0 mi North 12.7 mph 16.1 mph N/A   Clear
1:47 PM 64.4 °F 23.0 °F 21% 30.26 in 13.0 mi NNW 10.4 mph - N/A   Clear
2:47 PM 64.4 °F 23.0 °F 21% 30.21 in 13.0 mi ENE 6.9 mph 20.7 mph N/A   Clear
3:47 PM 64.4 °F 24.8 °F 22% 30.18 in 13.0 mi North 10.4 mph - N/A   Partly Cloudy
4:47 PM 66.2 °F 26.6 °F 23% 30.16 in 13.0 mi North 10.4 mph 18.4 mph N/A   Partly Cloudy
5:47 PM 64.4 °F 23.0 °F 21% 30.14 in 13.0 mi WSW 4.6 mph - N/A   Partly Cloudy
6:47 PM 62.6 °F 23.0 °F 22% 30.11 in 13.0 mi NE 5.8 mph - N/A   Scattered Clouds
7:47 PM 60.8 °F 24.8 °F 25% 30.10 in 13.0 mi East 6.9 mph - N/A   Overcast
8:59 PM 59.0 °F 24.8 °F 27% 30.09 in 13.0 mi East 5.8 mph - N/A   Mostly Cloudy
9:47 PM 59.0 °F 26.6 °F 29% 30.08 in 13.0 mi East 8.1 mph - N/A   Mostly Cloudy
10:15 PM 57.2 °F 26.6 °F 31% 30.07 in 10.0 mi East 5.8 mph - N/A   Clear
10:35 PM 57.2 °F 26.6 °F 31% 30.07 in 10.0 mi ESE 8.1 mph - N/A   Clear
10:55 PM 57.2 °F 26.6 °F 31% 30.06 in 10.0 mi ESE 6.9 mph - N/A   Clear
11:15 PM 57.2 °F 26.6 °F 31% 30.05 in 10.0 mi East 6.9 mph - N/A   Clear
11:35 PM 55.4 °F 28.4 °F 36% 30.04 in 10.0 mi ESE 5.8 mph - N/A   Clear
11:55 PM 55.4 °F 28.4 °F 36% 30.05 in 10.0 mi ESE 4.6 mph - N/A   Clear